Location: Jerusalem
(31.7667°N, 35.2333°E)
Time: 11:57:48
(UTC+03:00)

ISS - Visible Passes

Search period start: 29 June 2017 00:00
Search period end: 09 July 2017 00:00
Orbit: 401 x 408 km, 51.6° (Epoch: 29 June)

Date Brightness Start Highest point End Pass type
(mag) Time Alt. Az. Time Alt. Az. Time Alt. Az.
02 Jul -3.0 05:06:22 10° SSW 05:09:29 46° SE 05:12:38 10° ENE visible
03 Jul -1.8 04:15:43 14° SSE 04:17:23 21° SE 04:19:54 10° ENE visible
04 Jul -3.4 04:58:24 11° WSW 05:01:25 52° NW 05:04:37 10° NE visible
05 Jul -3.7 04:08:20 43° SSW 04:09:11 65° SE 04:12:24 10° NE visible
06 Jul -1.6 03:18:12 21° E 03:18:12 21° E 03:19:49 10° ENE visible
06 Jul -1.9 04:50:56 10° W 04:53:28 20° NW 04:56:00 10° NNE visible
07 Jul -3.0 04:00:38 37° WNW 04:01:03 39° NW 04:04:09 10° NNE visible
08 Jul -1.8 03:10:20 28° NE 03:10:20 28° NE 03:12:01 10° NE visible
